FW5819 Weather Reports


Display with metric or nautical units.
time (UTC)temp
F
wind
direction
speed
MPH
gust
MPH
rain 1hr
in
rain 24hr
in
rain mn
in
humidity
%
barometer
mb
20260507103040 41 0 0.0 3.0 0.00 0.00 0.00 86 1012.5
20260507101534 41 184 0.0 1.0 0.00 0.00 0.00 86 1012.5
20260507100035 41 0 0.0 1.0 0.00 0.00 0.00 85 1012.5
20260507094536 42 181 0.0 1.0 0.00 0.01 0.00 85 1012.5
20260507093032 42 200 0.0 2.0 0.00 0.01 0.00 85 1012.5
20260507091535 41 0 0.0 2.0 0.00 0.01 0.00 85 1012.6
20260507090034 41 128 0.0 1.0 0.00 0.01 0.00 85 1012.8
20260507084533 42 0 0.0 2.0 0.00 0.03 0.00 85 1012.7
20260507083036 42 166 0.0 1.0 0.00 0.03 0.00 86 1012.7
20260507081536 42 0 0.0 3.0 0.00 0.03 0.00 87 1012.8
20260507080041 41 165 0.0 2.0 0.00 0.03 0.00 87 1012.9
20260507074532 41 200 0.0 2.0 0.00 0.09 0.00 88 1012.8
20260507073037 41 0 0.0 1.0 0.00 0.09 0.00 88 1012.8
20260507071559 41 0 0.0 0.0 0.00 0.09 0.00 88 1012.8
20260507070037 41 0 0.0 1.0 0.00 0.09 0.00 88 1012.9
20260507064532 41 0 0.0 1.0 0.00 0.11 0.00 89 1013.1
20260507063037 41 205 0.0 1.0 0.00 0.11 0.00 89 1013.1
20260507061534 40 0 0.0 1.0 0.00 0.11 0.00 90 1013.3
20260507060038 39 0 0.0 0.0 0.00 0.11 0.00 89 1013.3
20260507054536 40 0 0.0 0.0 0.00 0.14 0.00 88 1013.4
20260507053052 40 0 0.0 0.0 0.00 0.14 0.00 88 1013.4
20260507051542 41 0 0.0 0.0 0.00 0.14 0.00 87 1013.5
20260507050036 41 0 0.0 0.0 0.00 0.14 0.00 87 1013.5
20260507044537 42 0 0.0 0.0 0.00 0.16 0.00 86 1013.7
20260507043037 43 0 0.0 0.0 0.00 0.16 0.00 86 1013.7
20260507041537 43 0 0.0 0.0 0.00 0.16 0.00 87 1013.7
20260507040045 44 0 0.0 0.0 0.00 0.16 0.00 87 1013.9
20260507034538 44 0 0.0 0.0 0.00 0.21 0.16 87 1013.9
20260507033044 44 0 0.0 0.0 0.00 0.21 0.16 87 1014.0
20260507031537 43 0 0.0 1.0 0.00 0.21 0.16 87 1014.2
20260507030035 43 0 0.0 0.0 0.00 0.21 0.16 87 1014.2
20260507024539 43 0 0.0 0.0 0.00 0.35 0.16 86 1014.2
20260507023036 43 0 0.0 0.0 0.00 0.35 0.16 86 1014.3
20260507021534 43 0 0.0 0.0 0.00 0.35 0.16 85 1014.1
20260507020037 43 0 0.0 0.0 0.00 0.35 0.16 84 1013.9
20260507014547 43 0 0.0 0.0 0.00 0.41 0.16 83 1013.9
20260507013035 43 0 0.0 0.0 0.00 0.41 0.16 82 1013.8
20260507011538 44 0 0.0 0.0 0.00 0.41 0.16 80 1013.7
20260507010036 45 0 0.0 0.0 0.00 0.41 0.16 78 1013.5
20260507004538 46 0 0.0 0.0 0.00 0.46 0.16 77 1013.6
20260507003034 48 0 0.0 0.0 0.00 0.46 0.16 74 1013.5
20260507001543 49 0 0.0 0.0 0.00 0.46 0.16 72 1013.5
20260507000037 49 0 0.0 0.0 0.00 0.46 0.16 71 1013.5
20260506234535 50 0 0.0 0.0 0.00 0.52 0.16 70 1013.5
20260506233036 50 0 0.0 0.0 0.00 0.52 0.16 71 1013.6
20260506231539 50 0 0.0 1.0 0.00 0.52 0.16 71 1013.5
20260506230037 50 0 0.0 1.0 0.00 0.52 0.16 71 1013.4
20260506224536 50 40 2.0 4.0 0.00 0.66 0.16 73 1013.5
20260506223035 50 61 0.0 4.0 0.00 0.66 0.16 71 1013.5
20260506221532 51 28 1.0 5.0 0.00 0.66 0.16 71 1013.5
20260506220041 51 39 1.0 3.0 0.00 0.66 0.16 70 1013.3
20260506214543 51 343 1.0 4.0 0.00 0.80 0.16 69 1013.2
20260506213035 52 28 1.0 5.0 0.00 0.80 0.16 67 1012.9
20260506211537 53 17 2.0 5.0 0.00 0.80 0.16 67 1012.6
20260506210041 53 327 1.0 4.0 0.00 0.80 0.16 65 1012.5
20260506204534 53 316 1.0 4.0 0.00 0.92 0.16 68 1012.4
20260506203037 53 36 3.0 7.0 0.00 0.92 0.16 69 1012.5
20260506201536 53 15 3.0 9.0 0.00 0.92 0.16 68 1012.6
20260506200035 53 336 2.0 5.0 0.00 0.92 0.16 67 1012.5
20260506194535 54 38 3.0 9.0 0.00 1.13 0.16 65 1012.4
20260506193034 54 340 3.0 8.0 0.00 1.13 0.16 63 1012.6
20260506191532 55 256 4.0 8.0 0.00 1.13 0.16 64 1012.3
20260506190037 54 284 2.0 10.0 0.00 1.13 0.16 67 1012.4
20260506184535 54 38 4.0 9.0 0.00 1.17 0.16 68 1012.4
20260506183035 54 338 3.0 6.0 0.00 1.17 0.16 74 1012.8
20260506181544 53 32 2.0 9.0 0.00 1.17 0.16 76 1012.8
20260506180055 52 340 4.0 10.0 0.00 1.17 0.16 74 1012.8
20260506174533 52 331 4.0 10.0 0.00 1.17 0.16 79 1012.9
20260506173040 52 43 4.0 9.0 0.00 1.17 0.16 79 1013.0
20260506171535 51 24 4.0 12.0 0.00 1.17 0.16 78 1012.7
20260506170035 52 44 4.0 8.0 0.00 1.17 0.16 79 1012.9
20260506164534 51 28 6.0 14.0 0.00 1.17 0.16 81 1013.0
20260506163037 51 32 4.0 10.0 0.00 1.17 0.16 83 1012.7
20260506161535 51 33 5.0 9.0 0.00 1.17 0.16 83 1012.4
20260506160037 50 57 4.0 11.0 0.00 1.17 0.16 83 1012.3
20260506154535 50 74 5.0 9.0 0.00 1.17 0.16 84 1012.2
20260506153032 50 80 4.0 9.0 0.00 1.17 0.16 85 1012.3
20260506151532 50 294 5.0 10.0 0.00 1.17 0.16 86 1011.8
20260506150032 50 346 5.0 12.0 0.00 1.17 0.16 88 1011.4
20260506144554 50 64 5.0 13.0 0.00 1.17 0.16 89 1011.3
20260506143034 49 338 5.0 12.0 0.00 1.17 0.16 93 1011.3
20260506141536 50 304 1.0 8.0 0.00 1.17 0.16 94 1011.2
20260506140034 49 336 2.0 6.0 0.00 1.17 0.16 95 1010.9
20260506134534 48 304 1.0 7.0 0.00 1.17 0.16 95 1010.8
20260506133041 47 298 1.0 9.0 0.00 1.17 0.16 95 1010.9
20260506131536 47 284 1.0 4.0 0.00 1.17 0.16 95 1010.6
20260506130037 46 0 0.0 3.0 0.00 1.17 0.16 96 1010.4
20260506124536 45 298 1.0 3.0 0.00 1.17 0.16 95 1010.3
20260506123034 45 0 0.0 1.0 0.00 1.17 0.16 96 1010.0
20260506121533 45 235 0.0 1.0 0.00 1.17 0.16 95 1010.1
20260506120033 44 0 0.0 3.0 0.00 1.17 0.16 95 1009.7
20260506114535 45 0 0.0 1.0 0.00 1.17 0.16 95 1010.1
20260506113035 45 0 0.0 1.0 0.00 1.17 0.16 96 1009.8
20260506111533 45 0 0.0 0.0 0.00 1.17 0.16 96 1009.2
20260506110039 44 0 0.0 0.0 0.00 1.17 0.16 96 1009.0
20260506104535 44 0 0.0 1.0 0.00 1.17 0.16 96 1008.6